Tracking 28125 objects as of 4-Oct-2023
HD Live streaming from Space Station
objects crossing your sky now

THORAD AGENA D DEB

Track THORAD AGENA D DEB now!
10-day predictions


NORAD ID: 5958
Int'l Code: 1970-025MP
Perigee: 994.7 km
Apogee: 1,071.8 km
Inclination: 99.5 °
Period: 105.7 minutes
Semi major axis: 7404 km
RCS: 0.0442 m2 (small)
Launch date: April 8, 1970
Source: United States (US)
Launch site: AIR FORCE WESTERN TEST RANGE (AFWTR)

Note: This is SATELLITE DEBRIS
Your satellite tracking list
Your tracking list is empty




NASA's NSSDC Master Catalog

Two Line Element Set (TLE):
1 05958U 70025MP  23276.26752266  .00000978  00000-0  12998-2 0  9992
2 05958  99.5145 188.7554 0052062 113.5424  37.8484 13.62630240640556
Source of the keplerian elements: AFSPC